timestamp,wind_dir_avg,wind_spd_avg,wind_spd_max_dir,wind_spd_gust,battery_voltage,lat,long
2022-12-12 00:04:01+00:00,34.0,7.48,39.0,8.83,12.33,47.59359,-54.27349
2022-12-12 00:14:01+00:00,31.0,7.59,33.0,9.44,12.33,47.59359,-54.27349
2022-12-12 00:24:01+00:00,31.0,6.47,39.0,8.49,12.33,47.59359,-54.27349
2022-12-12 00:34:01+00:00,14.0,5.46,26.0,7.42,12.33,47.59359,-54.27349
2022-12-12 00:44:01+00:00,31.0,5.89,47.0,7.43,12.33,47.59359,-54.27349
2022-12-12 00:54:01+00:00,31.0,6.32,46.0,7.41,12.33,47.59359,-54.27349
2022-12-12 01:04:01+00:00,37.0,5.91,51.0,7.24,12.33,47.59359,-54.27349
2022-12-12 01:14:00+00:00,32.0,6.16,41.0,8.35,12.33,47.59359,-54.27349
2022-12-12 01:24:00+00:00,35.0,5.41,37.0,6.76,12.33,47.59359,-54.27349
2022-12-12 01:34:00+00:00,4.0,6.37,23.0,8.6,12.33,47.59359,-54.27349
2022-12-12 01:44:00+00:00,17.0,6.78,27.0,8.45,12.33,47.59359,-54.27349
2022-12-12 01:54:00+00:00,18.0,5.96,43.0,8.18,12.33,47.59359,-54.27349
2022-12-12 02:04:00+00:00,19.0,6.65,27.0,8.39,12.33,47.59359,-54.27349
2022-12-12 02:14:00+00:00,7.0,5.76,31.0,7.0,12.25,47.59359,-54.27349
2022-12-12 02:24:00+00:00,328.0,5.99,319.0,7.85,12.25,47.59359,-54.27349
2022-12-12 02:34:00+00:00,1.0,4.58,3.0,5.87,12.25,47.59359,-54.27349
2022-12-12 02:44:00+00:00,20.0,6.36,43.0,8.35,12.25,47.59359,-54.27349
2022-12-12 02:54:00+00:00,38.0,6.4,44.0,8.38,12.25,47.59359,-54.27349
2022-12-12 03:04:00+00:00,36.0,6.95,37.0,8.56,12.25,47.59359,-54.27349
2022-12-12 03:14:00+00:00,39.0,7.3,38.0,8.73,12.25,47.59359,-54.27349
2022-12-12 03:24:00+00:00,57.0,6.39,58.0,7.39,12.25,47.59359,-54.27349
2022-12-12 03:34:00+00:00,27.0,6.09,42.0,8.45,12.25,47.59359,-54.27349
2022-12-12 03:44:00+00:00,22.0,6.27,44.0,8.22,12.25,47.59359,-54.27349
2022-12-12 03:54:00+00:00,2.0,5.6,31.0,6.54,12.25,47.59359,-54.27349
2022-12-12 04:04:00+00:00,359.0,3.32,358.0,3.98,12.25,47.59359,-54.27349
2022-12-12 04:14:01+00:00,38.0,7.29,43.0,8.5,12.17,47.59359,-54.27349
2022-12-12 04:24:01+00:00,358.0,5.94,5.0,6.56,12.17,47.59359,-54.27349
2022-12-12 04:34:01+00:00,12.0,5.46,42.0,7.89,12.17,47.59359,-54.27349
2022-12-12 04:44:01+00:00,53.0,5.44,57.0,7.02,12.17,47.59359,-54.27349
2022-12-12 04:54:01+00:00,359.0,6.5,324.0,8.12,12.17,47.59359,-54.27349
2022-12-12 05:04:01+00:00,49.0,7.14,50.0,7.9,12.17,47.59359,-54.27349
2022-12-12 05:14:00+00:00,7.0,4.44,30.0,6.28,12.17,47.59359,-54.27349
2022-12-12 05:24:00+00:00,321.0,5.72,308.0,7.69,12.17,47.59359,-54.27349
2022-12-12 05:34:00+00:00,3.0,5.01,1.0,5.72,12.17,47.59359,-54.27349
2022-12-12 05:44:00+00:00,320.0,4.9,302.0,6.76,12.17,47.59359,-54.27349
2022-12-12 05:54:00+00:00,350.0,4.54,337.0,5.93,12.17,47.59359,-54.27349
2022-12-12 06:04:00+00:00,20.0,2.96,61.0,5.38,12.17,47.59359,-54.27349
2022-12-12 06:14:00+00:00,0.0,4.2,15.0,5.25,12.17,47.59359,-54.27349
2022-12-12 06:24:00+00:00,359.0,3.34,359.0,4.21,12.17,47.59359,-54.27349
2022-12-12 06:34:00+00:00,285.0,5.92,282.0,6.58,12.17,47.59359,-54.27349
2022-12-12 06:44:00+00:00,317.0,4.11,302.0,6.04,12.17,47.59359,-54.27349
2022-12-12 06:54:00+00:00,310.0,4.02,296.0,5.94,12.17,47.59359,-54.27349
2022-12-12 07:04:00+00:00,309.0,6.35,306.0,7.73,12.17,47.59359,-54.27349
2022-12-12 07:14:00+00:00,305.0,6.26,308.0,7.73,12.17,47.59359,-54.27349
2022-12-12 07:24:00+00:00,0.0,2.54,44.0,4.33,12.17,47.59359,-54.27349
2022-12-12 07:34:00+00:00,52.0,1.86,71.0,4.57,12.17,47.59359,-54.27349
2022-12-12 07:44:00+00:00,301.0,6.52,309.0,7.38,12.17,47.59359,-54.27349
2022-12-12 07:54:00+00:00,320.0,3.43,294.0,6.68,12.17,47.59359,-54.27349
2022-12-12 08:04:00+00:00,291.0,6.1,297.0,6.81,12.17,47.59359,-54.27349
2022-12-12 08:14:01+00:00,11.0,3.28,26.0,4.05,12.09,47.59359,-54.27349
2022-12-12 08:24:01+00:00,357.0,3.03,11.0,3.79,12.09,47.59359,-54.27349
2022-12-12 08:34:01+00:00,331.0,3.83,304.0,6.25,12.09,47.59359,-54.27349
2022-12-12 08:44:01+00:00,295.0,6.06,294.0,6.83,12.09,47.59359,-54.27349
2022-12-12 08:54:01+00:00,11.0,3.13,49.0,4.3,12.09,47.59359,-54.27349
2022-12-12 09:04:01+00:00,359.0,3.98,1.0,4.84,12.09,47.59359,-54.27349
2022-12-12 09:14:00+00:00,338.0,3.59,305.0,6.73,12.09,47.59359,-54.27349
2022-12-12 09:24:00+00:00,330.0,3.37,300.0,5.77,12.09,47.59359,-54.27349
2022-12-12 09:34:00+00:00,318.0,3.58,305.0,5.94,12.09,47.59359,-54.27349
2022-12-12 09:44:00+00:00,322.0,3.76,302.0,6.65,12.09,47.59359,-54.27349
2022-12-12 09:54:00+00:00,314.0,4.64,303.0,7.22,12.09,47.59359,-54.27349
2022-12-12 10:04:00+00:00,319.0,5.73,304.0,7.42,12.09,47.59359,-54.27349
2022-12-12 10:14:00+00:00,293.0,5.69,296.0,6.58,12.09,47.59359,-54.27349
2022-12-12 10:24:00+00:00,318.0,5.64,308.0,7.6,12.09,47.59359,-54.27349
2022-12-12 10:34:00+00:00,300.0,6.67,296.0,8.48,12.09,47.59359,-54.27349
2022-12-12 10:44:00+00:00,309.0,5.63,303.0,7.15,12.09,47.59359,-54.27349
2022-12-12 10:54:00+00:00,300.0,6.29,302.0,7.13,12.09,47.59359,-54.27349
2022-12-12 11:04:00+00:00,333.0,2.83,292.0,5.54,12.09,47.59359,-54.27349
2022-12-12 11:14:00+00:00,297.0,5.66,298.0,6.72,12.09,47.59359,-54.27349
2022-12-12 11:24:00+00:00,286.0,5.26,284.0,5.83,12.09,47.59359,-54.27349
2022-12-12 11:34:00+00:00,291.0,5.63,294.0,6.22,12.09,47.59359,-54.27349
2022-12-12 11:44:00+00:00,287.0,5.62,295.0,6.73,12.09,47.59359,-54.27349
2022-12-12 11:54:00+00:00,287.0,4.94,283.0,5.73,12.09,47.59359,-54.27349
2022-12-12 12:04:00+00:00,295.0,5.28,293.0,6.62,12.09,47.59359,-54.27349
2022-12-12 12:14:00+00:00,293.0,4.8,295.0,5.99,12.09,47.59359,-54.27349
2022-12-12 12:24:00+00:00,300.0,5.54,298.0,6.75,12.09,47.59359,-54.27349
2022-12-12 12:34:00+00:00,305.0,3.99,296.0,5.91,12.09,47.59359,-54.27349
2022-12-12 12:44:00+00:00,274.0,5.27,274.0,6.64,12.09,47.59359,-54.27349
2022-12-12 12:54:00+00:00,282.0,5.43,284.0,6.3,12.09,47.59359,-54.27349
2022-12-12 13:04:00+00:00,298.0,3.92,304.0,4.84,12.09,47.59359,-54.27349
2022-12-12 13:14:00+00:00,293.0,5.26,293.0,6.57,12.17,47.59359,-54.27349
2022-12-12 13:24:00+00:00,287.0,5.23,288.0,6.3,12.17,47.59359,-54.27349
2022-12-12 13:34:00+00:00,353.0,2.51,358.0,3.27,12.17,47.59359,-54.27349
2022-12-12 13:44:00+00:00,28.0,2.34,45.0,3.3,12.17,47.59359,-54.27349
2022-12-12 13:54:00+00:00,58.0,2.54,68.0,3.35,12.17,47.59359,-54.27349
2022-12-12 14:04:00+00:00,55.0,2.23,50.0,3.12,12.17,47.59359,-54.27349
2022-12-12 14:14:01+00:00,77.0,0.94,97.0,1.53,12.41,47.59359,-54.27349
2022-12-12 14:24:01+00:00,284.0,3.42,276.0,5.7,12.41,47.59359,-54.27349
2022-12-12 14:34:01+00:00,302.0,3.78,294.0,5.68,12.41,47.59359,-54.27349
2022-12-12 14:44:01+00:00,305.0,4.58,296.0,6.18,12.41,47.59359,-54.27349
2022-12-12 14:54:01+00:00,50.0,2.11,69.0,3.65,12.41,47.59359,-54.27349
2022-12-12 15:04:01+00:00,33.0,0.86,46.0,1.23,12.41,47.59359,-54.27349
2022-12-12 16:14:01+00:00,311.0,2.77,309.0,3.46,13.21,47.59359,-54.27349
2022-12-12 16:24:01+00:00,1.0,1.56,7.0,2.17,13.21,47.59359,-54.27349
2022-12-12 16:34:01+00:00,62.0,3.74,64.0,4.14,13.21,47.59359,-54.27349
2022-12-12 16:44:01+00:00,68.0,3.5,68.0,4.07,13.21,47.59359,-54.27349
2022-12-12 16:54:01+00:00,57.0,2.79,62.0,3.28,13.21,47.59359,-54.27349
2022-12-12 17:04:01+00:00,72.0,2.28,73.0,2.58,13.21,47.59359,-54.27349
2022-12-12 17:14:01+00:00,53.0,3.31,57.0,4.33,13.13,47.59359,-54.27349
2022-12-12 17:24:01+00:00,53.0,4.07,47.0,4.57,13.13,47.59359,-54.27349
2022-12-12 17:34:01+00:00,63.0,4.83,66.0,5.73,13.13,47.59359,-54.27349
2022-12-12 17:44:01+00:00,54.0,4.59,52.0,5.21,13.13,47.59359,-54.27349
2022-12-12 17:54:01+00:00,45.0,3.78,41.0,4.66,13.13,47.59359,-54.27349
2022-12-12 18:04:01+00:00,64.0,4.18,67.0,4.25,13.13,47.59359,-54.27349
2022-12-12 18:14:00+00:00,63.0,3.66,65.0,4.11,12.97,47.59359,-54.27349
2022-12-12 18:24:00+00:00,51.0,4.86,62.0,5.53,12.97,47.59359,-54.27349
2022-12-12 18:34:00+00:00,56.0,4.08,57.0,4.95,12.97,47.59359,-54.27349
2022-12-12 18:44:00+00:00,64.0,5.16,72.0,5.9,12.97,47.59359,-54.27349
2022-12-12 18:54:00+00:00,54.0,4.91,61.0,5.75,12.97,47.59359,-54.27349
2022-12-12 19:04:00+00:00,50.0,6.41,52.0,7.18,12.97,47.59359,-54.27349
2022-12-12 19:14:00+00:00,54.0,6.1,60.0,7.31,12.57,47.59359,-54.27349
2022-12-12 19:24:00+00:00,59.0,4.44,63.0,5.06,12.57,47.59359,-54.27349
2022-12-12 19:34:00+00:00,53.0,4.75,53.0,5.51,12.57,47.59359,-54.27349
2022-12-12 19:44:00+00:00,50.0,5.12,39.0,6.39,12.57,47.59359,-54.27349
2022-12-12 19:54:00+00:00,76.0,4.64,80.0,7.62,12.57,47.59359,-54.27349
2022-12-12 20:04:00+00:00,98.0,4.1,104.0,7.14,12.57,47.59359,-54.27349
2022-12-12 20:14:00+00:00,65.0,5.01,77.0,9.49,12.33,47.59359,-54.27349
2022-12-12 20:24:00+00:00,63.0,5.79,64.0,8.19,12.33,47.59359,-54.27349
2022-12-12 20:34:00+00:00,70.0,5.48,67.0,6.93,12.33,47.59359,-54.27349
2022-12-12 20:44:00+00:00,64.0,7.72,71.0,10.35,12.33,47.59359,-54.27349
2022-12-12 20:54:00+00:00,68.0,6.01,74.0,9.47,12.33,47.59359,-54.27349
2022-12-12 21:04:00+00:00,73.0,6.51,69.0,9.06,12.33,47.59359,-54.27349
2022-12-12 21:14:00+00:00,79.0,5.39,75.0,8.93,12.33,47.59359,-54.27349
2022-12-12 21:24:00+00:00,80.0,5.54,78.0,9.02,12.33,47.59359,-54.27349
2022-12-12 21:34:00+00:00,73.0,5.91,70.0,9.18,12.33,47.59359,-54.27349
2022-12-12 21:44:00+00:00,70.0,7.13,71.0,10.06,12.33,47.59359,-54.27349
2022-12-12 21:54:00+00:00,71.0,6.81,75.0,8.81,12.33,47.59359,-54.27349
2022-12-12 22:04:00+00:00,74.0,4.56,77.0,7.21,12.33,47.59359,-54.27349
2022-12-12 22:14:00+00:00,73.0,3.32,68.0,4.66,12.25,47.59359,-54.27349
2022-12-12 22:24:00+00:00,99.0,3.59,104.0,5.0,12.25,47.59359,-54.27349
2022-12-12 22:34:00+00:00,85.0,4.34,81.0,7.62,12.25,47.59359,-54.27349
2022-12-12 22:44:00+00:00,76.0,2.36,62.0,4.3,12.25,47.59359,-54.27349
2022-12-12 22:54:00+00:00,79.0,2.81,73.0,4.07,12.25,47.59359,-54.27349
2022-12-12 23:04:00+00:00,77.0,3.68,65.0,5.28,12.25,47.59359,-54.27349
2022-12-12 23:14:00+00:00,71.0,7.86,74.0,9.94,12.17,47.59359,-54.27349
2022-12-12 23:24:00+00:00,80.0,3.84,65.0,4.84,12.17,47.59359,-54.27349
2022-12-12 23:34:00+00:00,80.0,4.07,88.0,5.89,12.17,47.59359,-54.27349
2022-12-12 23:44:00+00:00,75.0,5.03,70.0,7.79,12.17,47.59359,-54.27349
2022-12-12 23:54:00+00:00,77.0,6.63,77.0,9.82,12.17,47.59359,-54.27349
